TimeEST,TemperatureF,Dew PointF,Humidity,Sea Level PressureIn,VisibilityMPH,Wind Direction,Wind SpeedMPH,Gust SpeedMPH,PrecipitationIn,Events,Conditions,WindDirDegrees,DateUTC
12:16 AM,46.2,45.3,97,29.90,2.5,ESE,3.5,-,N/A,,Clear,120,2012-11-11 05:16:00
12:35 AM,45.3,44.2,96,29.89,2.0,ESE,4.6,-,N/A,,Clear,110,2012-11-11 05:35:00
12:55 AM,45.5,44.6,97,29.88,2.0,ESE,4.6,-,N/A,,Clear,120,2012-11-11 05:55:00
1:15 AM,45.0,44.1,97,29.88,2.0,SE,5.8,-,N/A,,Clear,130,2012-11-11 06:15:00
1:35 AM,45.7,44.8,97,29.88,2.0,ESE,3.5,-,N/A,,Clear,110,2012-11-11 06:35:00
1:55 AM,45.5,44.6,97,29.87,2.0,ESE,3.5,-,N/A,,Scattered Clouds,120,2012-11-11 06:55:00
2:15 AM,46.0,45.1,97,29.87,2.5,SE,5.8,-,N/A,,Scattered Clouds,130,2012-11-11 07:15:00
2:35 AM,45.7,44.8,97,29.88,2.5,SE,3.5,-,N/A,,Clear,130,2012-11-11 07:35:00
2:55 AM,45.5,44.6,97,29.88,2.0,SE,3.5,-,N/A,,Mostly Cloudy,130,2012-11-11 07:55:00
3:15 AM,45.5,44.6,97,29.88,2.0,SE,4.6,-,N/A,,Overcast,140,2012-11-11 08:15:00
3:35 AM,46.0,45.1,97,29.87,2.5,SE,4.6,-,N/A,,Scattered Clouds,140,2012-11-11 08:35:00
3:56 AM,45.9,45.0,97,29.87,2.5,SE,4.6,-,N/A,,Scattered Clouds,130,2012-11-11 08:56:00
4:15 AM,45.0,44.1,97,29.87,2.0,Calm,Calm,-,N/A,,Clear,0,2012-11-11 09:15:00
4:35 AM,45.5,44.6,97,29.87,2.0,Calm,Calm,-,N/A,,Clear,0,2012-11-11 09:35:00
4:56 AM,44.8,44.1,97,29.87,2.0,Calm,Calm,-,N/A,,Clear,0,2012-11-11 09:56:00
5:15 AM,45.1,44.4,97,29.88,2.0,Calm,Calm,-,N/A,,Clear,0,2012-11-11 10:15:00
5:35 AM,45.5,44.8,97,29.88,2.5,SSE,3.5,-,N/A,,Clear,160,2012-11-11 10:35:00
5:55 AM,45.1,44.2,97,29.87,4.0,SE,3.5,-,N/A,,Clear,140,2012-11-11 10:55:00
6:35 AM,46.8,45.9,97,29.87,5.0,SSE,4.6,-,N/A,,Clear,160,2012-11-11 11:35:00
6:55 AM,47.1,46.2,97,29.87,7.0,South,3.5,-,N/A,,Clear,170,2012-11-11 11:55:00
7:15 AM,47.3,45.9,95,29.87,7.0,SSE,5.8,-,N/A,,Clear,160,2012-11-11 12:15:00
7:35 AM,47.7,46.4,95,29.87,7.0,South,5.8,-,N/A,,Clear,170,2012-11-11 12:35:00
7:55 AM,48.2,46.4,93,29.88,10.0,South,5.8,-,N/A,,Clear,170,2012-11-11 12:55:00
8:35 AM,49.5,47.3,92,29.88,10.0,SSE,6.9,-,N/A,,Clear,160,2012-11-11 13:35:00
8:56 AM,52.0,48.2,87,29.87,10.0,SSE,6.9,-,N/A,,Clear,160,2012-11-11 13:56:00
9:15 AM,54.5,49.1,82,29.87,10.0,SSE,6.9,-,N/A,,Clear,160,2012-11-11 14:15:00
9:35 AM,55.8,48.9,78,29.86,10.0,South,8.1,-,N/A,,Clear,180,2012-11-11 14:35:00
9:55 AM,56.3,48.7,76,29.85,10.0,South,5.8,-,N/A,,Clear,170,2012-11-11 14:55:00
10:35 AM,57.9,48.4,71,29.86,10.0,South,9.2,-,N/A,,Clear,170,2012-11-11 15:35:00
10:55 AM,58.1,48.7,71,29.86,10.0,South,9.2,-,N/A,,Clear,180,2012-11-11 15:55:00
11:16 AM,59.7,49.1,68,29.85,10.0,South,6.9,-,N/A,,Clear,170,2012-11-11 16:16:00
11:35 AM,60.8,49.3,66,29.85,10.0,South,10.4,-,N/A,,Clear,170,2012-11-11 16:35:00
11:55 AM,62.1,49.5,63,29.84,10.0,South,9.2,-,N/A,,Clear,170,2012-11-11 16:55:00
12:15 PM,63.5,49.8,61,29.83,10.0,South,10.4,-,N/A,,Clear,180,2012-11-11 17:15:00
12:35 PM,64.6,50.0,59,29.82,10.0,South,8.1,-,N/A,,Clear,170,2012-11-11 17:35:00
1:15 PM,65.7,50.2,57,29.81,10.0,South,10.4,16.1,N/A,,Clear,170,2012-11-11 18:15:00
1:35 PM,66.0,50.0,56,29.81,10.0,South,11.5,17.3,N/A,,Clear,170,2012-11-11 18:35:00
1:55 PM,66.9,50.0,54,29.80,10.0,South,10.4,16.1,N/A,,Scattered Clouds,180,2012-11-11 18:55:00
2:16 PM,68.0,50.7,54,29.80,10.0,SE,10.4,-,N/A,,Scattered Clouds,140,2012-11-11 19:16:00
2:35 PM,67.5,50.5,55,29.79,10.0,SSE,9.2,-,N/A,,Mostly Cloudy,150,2012-11-11 19:35:00
2:55 PM,66.4,50.5,57,29.79,10.0,South,9.2,-,N/A,,Overcast,170,2012-11-11 19:55:00
3:15 PM,66.4,50.4,56,29.78,10.0,South,9.2,-,N/A,,Overcast,170,2012-11-11 20:15:00
3:35 PM,66.0,50.4,57,29.77,10.0,South,9.2,-,N/A,,Overcast,170,2012-11-11 20:35:00
3:55 PM,66.2,50.7,57,29.78,10.0,South,6.9,-,N/A,,Overcast,170,2012-11-11 20:55:00
4:16 PM,66.0,50.5,57,29.77,10.0,SSE,9.2,16.1,N/A,,Overcast,160,2012-11-11 21:16:00
4:35 PM,65.3,50.4,58,29.76,10.0,SSE,10.4,-,N/A,,Overcast,160,2012-11-11 21:35:00
4:55 PM,64.6,50.0,59,29.75,10.0,SSE,6.9,-,N/A,,Scattered Clouds,160,2012-11-11 21:55:00
5:15 PM,64.4,50.0,59,29.75,10.0,SSE,8.1,-,N/A,,Mostly Cloudy,160,2012-11-11 22:15:00
5:35 PM,64.4,50.0,59,29.75,10.0,SSE,8.1,-,N/A,,Overcast,160,2012-11-11 22:35:00
5:55 PM,63.5,50.2,62,29.74,10.0,SSE,8.1,-,N/A,,Scattered Clouds,150,2012-11-11 22:55:00
6:15 PM,63.7,50.2,61,29.73,10.0,SSE,9.2,-,N/A,,Scattered Clouds,160,2012-11-11 23:15:00
6:35 PM,63.5,50.0,61,29.72,10.0,SSE,10.4,-,N/A,,Scattered Clouds,150,2012-11-11 23:35:00
6:55 PM,63.7,49.8,61,29.72,10.0,SSE,8.1,-,N/A,,Scattered Clouds,160,2012-11-11 23:55:00
7:15 PM,64.6,49.8,59,29.72,10.0,South,9.2,17.3,N/A,,Overcast,170,2012-11-12 00:15:00
7:35 PM,64.9,49.3,57,29.71,10.0,South,12.7,21.9,N/A,,Mostly Cloudy,170,2012-11-12 00:35:00
7:55 PM,65.3,48.7,55,29.71,10.0,South,15.0,23.0,N/A,,Overcast,170,2012-11-12 00:55:00
8:15 PM,65.3,48.6,55,29.71,10.0,South,12.7,19.6,N/A,,Overcast,180,2012-11-12 01:15:00
8:35 PM,64.9,48.2,55,29.70,10.0,South,11.5,18.4,N/A,,Overcast,170,2012-11-12 01:35:00
8:56 PM,65.1,48.2,54,29.70,10.0,South,12.7,20.7,N/A,,Overcast,180,2012-11-12 01:56:00
9:15 PM,65.3,48.2,54,29.71,10.0,South,11.5,21.9,N/A,,Overcast,190,2012-11-12 02:15:00
9:35 PM,65.3,47.8,53,29.71,10.0,South,15.0,24.2,N/A,,Overcast,190,2012-11-12 02:35:00
9:56 PM,65.3,47.8,53,29.71,10.0,South,13.8,24.2,N/A,,Overcast,190,2012-11-12 02:56:00
10:15 PM,64.6,48.6,56,29.72,10.0,SSW,17.3,26.5,N/A,,Overcast,200,2012-11-12 03:15:00
10:35 PM,62.8,50.2,63,29.72,10.0,SSW,16.1,28.8,N/A,,Overcast,210,2012-11-12 03:35:00
10:55 PM,61.5,51.8,70,29.73,7.0,West,15.0,24.2,N/A,Rain,Rain,270,2012-11-12 03:55:00
11:15 PM,55.0,52.2,90,29.75,5.0,WSW,11.5,18.4,N/A,,Heavy Drizzle,250,2012-11-12 04:15:00
11:35 PM,54.5,52.2,92,29.75,7.0,WSW,6.9,-,N/A,,Drizzle,250,2012-11-12 04:35:00
11:55 PM,54.0,52.0,93,29.75,5.0,WSW,6.9,-,N/A,,Drizzle,240,2012-11-12 04:55:00